This demonstration page uses our WeatherBlox Daily Observations layout. Learn more.

Left ArrowRight Arrow

Hourly Observations for August 27, 2018

Temp ( °F °C ) Dew Point ( °F °C ) Humidity (%) Winds ( mph kmh ) Pressure ( in mb ) Visibility ( mi km ) Precip ( " mm )
12:52 am 00:52 Clear 77 25 69 20.6 77 77 SSE 14 22 29.96 1015 8 13 0.00 0.00
1:52 am 01:52 Clear 76 24.4 68 20 77 77 SSE 14 22 29.94 1014 8 13 0.00 0.00
2:52 am 02:52 Clear 76 24.4 69 20.6 79 79 SSE 15 24 29.93 1014 8 13 0.00 0.00
3:52 am 03:52 Clear 75 23.9 69 20.6 82 82 SSE 15 24 29.93 1014 8 13 0.00 0.00
4:52 am 04:52 Clear 75 23.9 69 20.6 82 82 SSE 16 26 29.92 1013 8 13 0.00 0.00
5:52 am 05:52 Clear 75 23.9 69 20.6 82 82 SSE 15 24 29.92 1013 9 14 0.00 0.00
6:52 am 06:52 Sunny 74 23.3 69 20.6 85 85 SSE 14 22 29.94 1014 8 13 0.00 0.00
7:52 am 07:52 Sunny 76 24.4 69 20.6 79 79 SSE 15 24 29.95 1014 9 14 0.00 0.00
8:52 am 08:52 Sunny 79 26.1 70 21.1 74 74 S 15 24 29.95 1014 10 16 0.00 0.00
9:52 am 09:52 Sunny 82 27.8 71 21.7 69 69 S 16 26 29.95 1014 10 16 0.00 0.00
10:52 am 10:52 Sunny 85 29.4 71 21.7 63 63 S 18 30 29.95 1014 10 16 0.00 0.00
11:52 am 11:52 Sunny 87 30.6 72 22.2 61 61 S 21 33 29.94 1014 10 16 0.00 0.00
12:52 pm 12:52 Sunny 89 31.7 72 22.2 57 57 S 17 28 29.92 1013 10 16 0.00 0.00
1:52 pm 13:52 Mostly Sunny 90 32.2 72 22.2 56 56 S 16 26 29.91 1013 10 16 0.00 0.00
2:52 pm 14:52 Mostly Sunny 91 32.8 71 21.7 52 52 S 16 26 29.89 1012 10 16 0.00 0.00
3:52 pm 15:52 Partly Cloudy 90 32.2 71 21.7 54 54 S 20 31 29.88 1012 10 16 0.00 0.00
4:52 pm 16:52 Mostly Sunny 88 31.1 70 21.1 55 55 S 21 33 29.87 1012 10 16 0.00 0.00
5:52 pm 17:52 Sunny 88 31.1 69 20.6 54 54 S 20 31 29.87 1011 10 16 0.00 0.00
6:52 pm 18:52 Sunny 86 30 70 21.1 59 59 S 10 17 29.86 1011 10 16 0.00 0.00
7:52 pm 19:52 Clear 84 28.9 70 21.1 63 63 S 14 22 29.87 1011 10 16 0.00 0.00
8:52 pm 20:52 Clear 82 27.8 69 20.6 65 65 S 15 24 29.88 1012 10 16 0.00 0.00
9:52 pm 21:52 Clear 80 26.7 69 20.6 69 69 S 14 22 29.89 1012 10 16 0.00 0.00
10:52 pm 22:52 Clear 79 26.1 70 21.1 74 74 S 15 24 29.89 1012 10 16 0.00 0.00
11:52 pm 23:52 Clear 79 26.1 70 21.1 74 74 S 15 24 29.90 1012 10 16 0.00 0.00

Powered by AerisWeather